Regional Weather Roundup
Issued by NWS Kansas City/Pleasant Hill, MO

Home | Current Version | Previous Version | Text Only | Print | Product List | Glossary On
Versions: 1 2 3 4 5 6 7 8 9 10 11 12 13 14 15 16 17 18 19 20 21 22 23 24 25 26 27 28 29 30 31 32 33 34 35 36 37 38 39 40 41 42 43 44 45 46 47 48 49 50
000
ASUS43 KEAX 021810
RWREAX

WEATHER ROUNDUP FOR EASTERN KANSAS AND NORTHWEST MISSOURI
NATIONAL WEATHER SERVICE KANSAS CITY/PLEASANT HILL MO
100 PM CDT THU JUL 02 2015

KSZ040-057-103>105-MOZ028-029-037-043-021900-
...KANSAS CITY METROPOLITAN AREA...

CITY           SKY/WX    TMP DP  RH WIND       PRES   REMARKS
K.C. INTL      CLOUDY    70  67  90 NE9       29.93F
6HR MIN TEMP:  70; 6HR MAX TEMP:  72; 6HR PCP: TRACE;

K.C. DOWNTOWN  CLOUDY    73  68  84 NE12      29.92F
6HR MIN TEMP:  72; 6HR MAX TEMP:  74; 6HR PCP: TRACE;

LEES SUMMIT    CLOUDY    72  67  84 E9        29.94S
6HR MIN TEMP:  70; 6HR MAX TEMP:  72; 6HR PCP: TRACE;

OLATHE - IXD   CLOUDY    73  68  84 E8        29.94S HAZE
6HR MIN TEMP:  72; 6HR MAX TEMP:  74;

OLATHE - OJC   CLOUDY    72  68  87 E6        29.93S
6HR MIN TEMP:  70; 6HR MAX TEMP:  73; 6HR PCP: TRACE;

LAWRENCE       CLOUDY    74  68  81 CALM      29.94R

$$

MOZ001>008-011>017-020>025-030>033-038>040-044>046-053-054-021900-
...NORTHERN AND CENTRAL MISSOURI...

CITY           SKY/WX    TMP DP  RH WIND       PRES   REMARKS
ST. JOSEPH     CLOUDY    71  66  84 NE8       29.93F
6HR MIN TEMP:  69; 6HR MAX TEMP:  71;

MOSBY          CLOUDY    72  66  83 NE7       29.93F
WARRENSBURG    CLOUDY    72  68  88 N6        29.91F
WHITEMAN AFB   CLOUDY    74  69  85 NE12      29.90F
6HR MIN TEMP:  70; 6HR MAX TEMP:  74; 6HR PCP:  0.01;

CLINTON        CLOUDY    75  72  88 NE9       29.91F
SEDALIA        CLOUDY    74  68  81 NE8       29.93S
6HR MIN TEMP:  71; 6HR MAX TEMP:  75; 6HR PCP:  0.01;

WARSAW         PTSUNNY   77  72  83 NE9G17    29.91F
CHILLICOTHE      N/A     72  65  78 VRB3      29.95F
6HR MIN TEMP:  68; 6HR MAX TEMP:  72;

KIRKSVILLE     PTSUNNY   71  59  65 NE8       29.96F
6HR MIN TEMP:  65; 6HR MAX TEMP:  72; 6HR PCP: TRACE;


$$

MOZ041-047>049-056>058-063>065-088>090-097-021900-
...EASTERN AND SOUTHERN MISSOURI...

CITY           SKY/WX    TMP DP  RH WIND       PRES   REMARKS
ST. LOUIS INTL NOT AVBL
SPIRIT OF STL  CLOUDY    72  64  76 NE7       29.91S
COLUMBIA       MOSUNNY   74  67  78 NE9       29.92F
JEFFERSON CITY CLOUDY    72  66  81 E7        29.91S
MEXICO         CLOUDY    72  66  83 E9        29.94
ROLLA          CLOUDY    72  69  90 NE9       29.89S
LEBANON        CLOUDY    75  70  83 MISG      29.92R
OSAGE BEACH    CLOUDY    75  68  78 N10       29.90S
SPRINGFIELD    PTSUNNY   82  73  74 N8        29.88S
BRANSON        CLOUDY    77  73  88 CALM      29.91R
JOPLIN         CLOUDY    85  75  72 N7        29.89R HX  93
WEST PLAINS    MOSUNNY   81  71  71 W13       29.89F
MALDEN         MOSUNNY   84  70  61 W7        29.86F

$$

IAZ060-094-KSZ022-034>040-054-083-096-NEZ052-066-093-021900-
...KANSAS...SOUTHEAST NEBRASKA AND IOWA...

CITY           SKY/WX    TMP DP  RH WIND       PRES   REMARKS
TOPEKA         LGT RAIN  74  69  85 E14       29.90F
6HR MIN TEMP:  73; 6HR MAX TEMP:  76; 6HR PCP: TRACE;

MANHATTAN      LGT RAIN  75  71  87 E3        29.93F
EMPORIA        CLOUDY    76  69  79 CALM      29.94F
CHANUTE        CLOUDY    77  70  79 N9        29.92R
WICHITA        RAIN      78  72  81 NW9       29.97R
OMAHA          RAIN      66  64  93 E5        29.96F FOG
LINCOLN        TSTM      66  65  96 E5        29.96R FOG
FALLS CITY     CLOUDY    71  66  84 VRB5      29.95F
LAMONI         CLOUDY    70  62  76 VRB5      29.97S
DES MOINES     CLOUDY    70  54  56 SE8       29.99R

$$




USA.gov is the U.S. government's official web portal to all federal, state and local government web resources and services.